TAF and METAR

Decoding for American and Canadian METARs and TAFs is not fully implemented.

Could not understand the following METAR

CWPX 230900Z AUTO 01011KT ////SM //// NCD M17/M19 A3040
No TAF available for Cape Peel West
Cape Peel West in Canada at 165m

Latest 5 airports